Wind_Speed
29 27 26 24 23 21 19 18 19 19 16 18 15 17 17 17 16 14 12 13 10 10 12 9 7 8 3 6 7 4 8 20 21 16 15 13 12 8 11 11 10 11 4 3 5 9 11
32 29 28 26 24 22 21 18 20 20 18 17 16 18 17 16 15 13 10 11 8 10 10 8 7 4 3 6 1 3 6 19 16 18 14 12 6 8 5 6 11 2 8 3 6 10 12
24 34 30 29 25 23 22 20 19 21 18 18 16 19 17 15 14 11 9 8 7 10 8 7 3 2 5 10 2 7 4 6 14 17 12 14 8 6 2 4 3 4 7 8 8 10 7
28 23 34 30 27 25 23 21 20 21 19 18 16 18 15 13 13 8 7 6 7 8 8 5 1 1 7 4 3 10 9 6 9 14 10 4 10 9 5 1 3 7 6 6 6 7 4
29 29 32 32 30 27 25 23 20 21 20 18 16 17 15 12 10 5 6 5 5 6 3 1 1 3 6 5 5 1 8 4 8 10 6 3 8 4 3 6 5 6 8 7 8 5 7
30 31 27 34 33 29 26 25 22 21 20 18 16 16 13 9 6 3 6 3 3 1 1 3 5 5 8 1 2 0 6 12 4 11 7 5 4 6 6 7 9 8 6 10 10 4 6
31 30 29 30 36 31 29 26 24 20 20 18 16 14 11 8 5 7 8 5 4 5 8 6 1 5 4 10 3 4 4 9 6 5 5 5 5 8 6 8 3 3 6 11 8 5 4
34 34 32 27 37 34 31 28 25 21 20 17 15 12 10 6 6 11 7 5 6 3 5 15 11 10 11 4 3 5 3 4 4 1 2 6 0 4 3 4 5 6 9 8 5 4 4
35 34 35 32 32 36 32 30 26 23 20 17 14 12 8 7 11 10 10 15 2 7 4 4 7 5 3 7 4 3 3 4 13 10 4 3 7 2 5 8 9 5 5 10 7 7 2
36 36 36 34 32 38 33 31 28 24 21 18 14 11 10 14 7 7 8 12 15 8 4 6 5 4 5 3 4 2 2 1 5 9 2 3 2 8 8 6 3 6 1 9 13 12 7
37 38 35 35 32 35 35 32 30 25 22 19 15 12 18 16 2 7 1 5 5 4 6 7 5 4 4 5 2 3 3 2 5 5 3 3 3 6 5 2 2 4 6 8 5 4 5
40 39 38 34 34 32 38 34 31 26 23 20 16 14 18 18 8 9 4 3 5 5 4 6 6 8 7 2 2 1 2 5 3 3 3 4 2 2 4 5 1 11 8 5 2 2 6
39 37 38 36 34 32 36 36 32 27 24 20 17 16 26 12 4 3 5 5 5 7 2 7 8 9 9 5 5 3 6 8 7 9 8 6 4 4 3 9 5 5 9 3 4 5 7
37 37 36 37 35 32 35 39 34 29 25 20 17 16 23 18 8 3 5 6 7 4 8 3 6 10 11 6 3 3 8 8 2 5 8 9 6 4 1 3 3 7 6 4 5 4 3
36 35 34 36 36 32 34 40 35 31 26 20 15 14 10 17 22 3 4 9 7 5 6 9 10 13 7 6 3 6 5 6 2 2 4 5 4 4 2 2 2 6 6 2 2 1 3
36 35 33 34 37 34 34 43 36 32 27 25 14 10 14 13 14 12 5 9 7 3 4 11 10 10 11 11 9 7 8 3 3 1 3 4 4 3 5 2 7 3 8 3 3 3 4
35 34 33 36 36 35 35 44 38 34 30 25 13 6 9 16 17 7 9 10 4 6 6 10 8 7 9 9 8 9 8 4 3 4 1 5 3 5 3 6 5 4 4 1 0 2 2
32 34 35 38 36 34 37 45 39 36 32 30 12 9 12 22 9 6 12 7 4 6 5 6 4 5 11 10 7 8 9 1 4 3 5 2 1 4 6 3 2 2 5 7 4 4 1
26 32 33 33 36 35 39 44 41 40 40 20 9 5 5 7 10 8 6 7 4 6 8 8 7 3 3 7 4 5 5 3 2 5 6 6 4 4 5 4 5 7 8 5 4 1 6
26 31 31 32 40 33 42 45 45 43 42 24 9 8 5 6 4 15 13 14 9 3 4 3 4 3 6 4 1 6 7 3 2 2 2 3 3 6 7 1 1 6 11 11 10 4 4
28 30 29 30 34 44 44 48 48 44 44 14 6 7 11 12 10 13 16 14 15 6 3 6 4 6 7 5 5 5 5 5 3 5 3 3 5 4 2 1 3 4 7 13 16 13 7
29 30 31 33 29 39 46 48 48 45 44 12 8 5 4 14 13 14 13 12 18 7 7 7 7 9 7 4 7 9 9 7 4 6 5 2 3 2 3 2 3 7 10 12 15 16 14
30 30 36 30 32 35 44 46 46 46 43 9 4 2 10 5 12 13 11 13 14 11 1 2 9 8 5 4 5 7 7 7 5 6 6 3 5 3 2 2 3 6 15 17 12 12 14
29 28 29 29 32 37 38 44 43 43 41 17 6 4 5 7 11 14 13 11 13 11 8 4 4 4 5 16 16 14 14 12 10 8 2 5 5 1 0 1 3 1 1 3 12 16 15
29 35 39 29 39 39 41 41 41 39 42 6 7 4 4 4 10 10 13 12 9 6 5 6 4 3 16 4 3 4 2 2 4 7 5 1 4 3 2 4 7 12 3 3 5 6 5
29 34 29 36 36 39 39 38 39 40 47 6 7 7 4 7 7 8 15 11 7 6 5 4 6 12 2 2 2 4 4 3 4 4 3 4 3 2 3 3 4 3 4 1 3 5 5
36 34 31 32 36 36 35 36 37 43 48 7 6 9 4 3 3 9 13 12 5 4 5 6 8 3 1 2 2 2 3 1 5 5 4 2 0 4 4 4 6 1 2 3 3 3 5
26 25 29 32 31 32 33 34 36 47 49 5 7 7 2 3 5 1 4 6 5 7 6 8 6 2 2 2 2 3 2 4 3 2 4 5 6 3 3 3 5 5 6 3 4 4 6
29 30 27 26 28 29 30 33 37 48 50 8 6 12 14 5 4 5 6 3 2 3 6 11 1 6 6 3 1 3 3 1 1 2 3 3 4 1 6 2 3 7 6 3 4 8 10
Wind_Direction
259 259 260 262 263 266 269 272 272 278 289 286 293 296 299 304 297 295 299 292 295 289 284 288 296 300 338 243 259 299 19 164 165 178 192 190 188 195 201 201 194 234 235 236 205 190 196
254 255 257 258 259 263 267 270 272 277 287 281 294 293 297 300 296 295 300 289 290 284 281 285 293 330 271 251 186 200 57 166 178 183 199 203 222 217 222 216 219 198 234 200 173 179 178
265 253 255 256 256 256 260 267 264 273 283 281 291 294 295 298 293 296 297 290 285 274 271 275 281 299 255 253 222 179 159 198 202 202 200 210 223 217 278 211 205 181 149 145 121 169 155
266 261 252 255 255 254 256 261 263 271 277 277 286 290 291 292 289 298 291 278 265 259 259 262 218 254 257 239 236 247 254 224 208 210 226 242 223 257 258 48 158 191 205 153 93 162 152
268 256 253 250 252 251 253 256 260 266 273 275 283 288 289 290 287 299 276 251 246 245 226 146 188 259 264 276 245 251 169 156 158 179 183 86 178 227 212 216 174 188 174 164 143 44 146
264 262 256 248 251 248 247 251 255 258 266 272 280 285 282 289 285 249 229 168 240 180 197 217 257 257 246 97 350 241 172 165 147 132 142 199 185 203 212 199 188 177 139 172 150 67 178
253 264 255 251 248 247 246 248 252 255 259 265 277 282 280 275 244 201 166 113 201 201 223 231 56 292 301 330 252 157 165 156 160 182 235 203 213 218 177 224 339 167 161 151 118 113 131
254 253 255 252 249 245 243 245 248 249 254 258 269 275 272 245 199 189 177 235 289 359 260 224 252 274 274 292 265 154 197 209 192 183 180 187 254 59 85 185 166 163 159 142 117 129 233
253 251 254 250 249 245 242 242 245 248 245 246 258 266 246 194 168 188 216 231 224 349 259 177 204 241 272 195 249 173 217 156 195 252 316 313 124 152 167 158 156 104 189 167 172 156 152
249 249 250 249 245 243 239 240 241 243 241 242 243 243 205 164 172 200 233 254 255 243 227 158 200 188 175 235 208 15 39 224 147 235 59 102 85 161 132 108 280 152 105 160 149 182 200
242 244 245 248 246 244 238 236 238 237 237 236 236 225 201 177 156 202 338 201 198 205 202 155 153 123 150 209 111 122 28 216 179 134 256 92 113 129 132 73 281 95 167 144 151 200 221
242 241 238 240 243 241 237 233 234 233 228 230 230 218 194 205 252 229 268 201 197 213 233 156 160 173 166 163 143 110 148 79 108 128 126 113 91 16 78 77 174 137 143 127 158 237 246
237 236 238 238 242 239 236 234 230 228 224 222 225 215 190 192 214 250 211 214 199 212 142 166 170 176 193 167 156 198 176 155 191 160 170 156 94 107 157 116 141 227 190 204 223 220 253
231 234 237 234 238 238 233 232 227 223 218 215 218 206 207 216 221 325 196 209 209 183 204 132 164 168 195 174 150 151 165 170 161 246 173 181 170 167 99 281 203 198 246 237 251 231 259
227 230 233 233 235 235 229 228 222 218 211 204 194 182 230 235 210 261 229 206 198 197 180 169 161 180 172 164 209 180 192 172 155 261 215 170 127 128 37 158 261 149 216 38 135 69 260
222 226 228 231 230 232 228 224 216 210 202 197 165 180 225 206 198 197 231 215 206 178 187 186 178 201 186 180 190 206 188 150 148 239 292 156 149 179 146 192 70 289 132 180 214 231 244
220 222 226 229 230 230 226 220 210 201 196 188 174 189 163 170 154 198 213 200 197 204 198 194 184 174 195 174 200 193 180 152 201 143 231 166 250 147 194 214 197 153 187 74 282 289 278
217 222 225 224 227 231 225 212 203 196 186 168 176 198 156 150 183 201 206 199 164 184 175 207 204 157 179 176 172 187 191 273 155 176 191 130 150 177 198 114 306 274 218 205 237 184 219
221 223 226 225 227 232 221 209 197 190 175 163 176 151 155 189 188 188 176 180 199 186 188 186 174 170 172 168 174 178 169 87 179 200 182 173 199 174 168 176 192 225 197 195 120 122 211
226 223 227 223 224 223 214 205 194 187 183 179 167 167 149 198 236 184 183 188 184 194 164 163 138 133 142 154 81 167 156 146 146 178 53 191 193 243 240 54 187 197 197 198 203 202 210
233 226 223 216 222 226 203 200 189 188 184 192 197 183 167 181 197 193 188 178 187 170 202 187 145 200 168 155 162 167 160 148 154 154 151 232 235 212 223 154 224 246 219 204 215 231 225
230 222 214 213 227 218 199 197 187 187 179 211 171 162 177 160 169 182 181 194 193 163 183 178 180 159 169 176 202 186 169 188 178 173 184 164 201 187 235 219 278 267 248 236 233 246 253
223 222 212 217 216 222 195 192 186 185 178 189 145 119 170 171 178 183 187 181 192 155 84 40 148 141 149 89 63 63 80 82 116 168 163 161 155 160 241 351 280 284 245 231 229 231 241
217 216 213 196 215 202 198 191 186 189 179 182 171 149 145 158 193 189 178 182 178 181 144 112 137 120 112 122 107 85 82 80 81 68 58 139 131 91 167 218 224 338 179 269 246 255 248
214 201 208 214 185 190 193 188 188 189 185 211 171 172 122 123 185 193 185 171 136 117 103 113 61 64 145 153 114 117 82 77 67 52 55 8 142 125 176 222 316 277 198 209 204 288 323
205 192 193 188 191 189 187 186 191 186 188 207 167 141 115 128 208 175 173 180 162 156 127 86 74 121 131 94 131 161 184 177 162 145 68 75 58 236 150 219 247 40 65 184 220 275 20
180 191 191 190 186 182 183 189 191 186 186 183 145 132 120 117 134 163 182 180 159 158 115 129 147 195 278 113 113 161 174 339 180 183 177 126 50 213 180 241 282 265 243 171 244 21 0
181 180 184 180 177 181 186 190 190 185 184 169 121 114 114 89 133 189 159 146 143 183 151 139 134 191 131 155 165 168 155 185 198 145 185 182 164 183 140 206 267 157 147 238 8 334 323
168 169 168 169 180 185 189 192 189 185 183 162 105 107 92 74 81 82 76 48 30 148 129 173 60 150 166 121 148 115 139 154 171 212 189 225 224 230 215 239 103 196 288 317 323 298 300
Height
812 814 815 817 818 819 819 820 820 820 817 818 816 818 816 813 813 811 809 810 808 810 811 808 805 803 802 796 782 777 774 775 779 783 783 782 783 783 787 782 782 788 778 777 778 780 781
806 808 810 812 812 815 817 815 818 818 815 815 812 815 814 811 810 809 806 808 806 808 809 806 803 802 802 793 777 776 777 777 778 781 782 782 780 780 779 780 782 776 776 779 781 780 783
801 803 805 807 807 809 811 812 812 815 813 813 811 812 811 809 807 806 804 806 805 807 807 805 803 804 801 783 777 776 776 778 779 780 779 781 783 783 779 780 777 777 783 778 784 783 787
795 797 799 801 803 805 806 808 809 812 810 810 807 809 807 806 805 802 804 803 804 806 806 804 803 804 788 775 775 775 776 776 778 780 781 782 783 783 782 778 780 781 779 787 787 782 789
789 790 793 794 796 799 801 803 804 807 808 807 805 805 805 803 803 799 804 802 803 805 803 803 805 803 782 774 773 772 773 774 777 779 783 782 783 781 781 783 785 784 787 787 792 785 785
784 785 785 788 791 793 795 798 799 800 803 805 803 803 802 800 801 798 804 801 804 805 804 805 804 803 775 769 770 772 772 773 773 778 783 783 782 780 778 780 794 786 787 784 789 794 786
775 779 780 781 784 788 791 793 795 796 799 800 801 801 800 798 798 798 803 805 808 805 802 781 781 779 771 770 769 770 770 772 770 774 777 779 783 784 776 775 775 774 780 787 793 800 797
767 770 773 775 778 781 785 788 790 790 796 796 798 797 798 797 797 798 802 799 789 789 782 780 782 780 774 773 771 767 768 768 772 777 777 781 783 780 777 779 777 779 784 793 801 801 796
761 763 765 768 772 774 779 782 784 788 790 791 793 795 795 795 797 800 797 793 789 788 783 777 776 773 769 771 767 765 766 766 773 778 778 777 783 781 781 779 781 785 785 795 791 800 796
751 756 759 762 765 767 771 777 780 783 786 789 789 790 794 792 802 797 793 788 788 788 780 778 772 767 768 767 770 767 767 767 775 779 778 782 782 781 778 784 779 789 789 788 794 793 797
743 746 751 754 757 763 763 770 775 777 783 785 787 786 790 790 793 792 789 787 786 786 803 772 769 765 765 769 767 769 769 766 773 779 785 787 783 783 784 789 787 792 790 787 789 790 793
734 737 741 745 750 755 759 762 769 773 777 782 783 784 788 792 790 786 786 786 786 788 799 775 764 768 770 770 771 768 768 768 773 779 778 785 782 781 785 789 786 789 792 792 792 794 806
725 728 732 736 742 746 752 758 763 767 773 776 780 781 782 787 784 783 785 785 786 789 774 776 772 767 767 774 775 771 772 776 778 790 789 785 788 785 784 790 791 790 790 805 816 813 811
715 720 724 728 734 738 744 750 757 763 768 771 776 779 778 783 781 783 783 780 787 770 772 765 765 767 774 772 777 776 776 780 780 776 781 787 803 788 788 787 786 789 789 805 823 816 805
704 711 715 720 725 730 736 742 751 759 763 766 772 778 779 774 778 783 779 780 771 766 760 766 767 773 776 774 773 776 777 776 780 778 779 788 795 789 791 787 789 797 799 797 811 833 821
695 701 706 712 717 723 728 734 743 753 758 762 768 774 770 770 774 785 778 769 762 759 761 758 770 766 776 773 776 775 778 781 782 780 777 783 799 792 793 789 792 790 793 806 804 824 818
685 691 697 704 709 714 720 726 736 745 751 759 766 763 760 765 773 775 769 761 759 756 757 761 762 770 766 774 769 773 776 782 780 780 777 777 782 798 794 791 788 799 798 803 798 808 810
676 682 689 694 702 706 713 717 728 738 746 756 754 752 758 761 766 759 758 754 754 754 756 757 755 760 764 767 772 772 776 774 779 777 780 782 784 797 792 792 791 788 789 792 803 811 816
669 675 680 686 692 697 703 708 720 729 736 745 741 743 758 758 756 760 756 752 752 754 753 756 757 756 762 767 776 773 775 784 784 780 780 783 787 800 800 798 793 792 791 792 801 805 809
662 667 673 678 684 689 694 702 713 722 730 737 734 741 751 754 746 745 750 750 753 752 752 753 757 758 763 769 772 777 779 785 786 784 796 786 785 783 789 783 781 793 793 792 791 806 794
655 661 666 670 676 682 689 698 706 715 724 731 723 721 724 740 746 741 742 743 749 754 751 750 756 753 757 772 773 776 776 784 786 794 787 784 786 788 790 793 792 787 787 790 790 785 797
648 653 661 664 672 682 684 694 698 710 721 726 716 720 730 729 737 740 746 744 744 749 748 750 750 755 757 763 759 769 769 774 774 786 784 788 790 795 797 799 798 797 787 783 783 781 782
641 644 655 658 664 672 678 687 693 704 713 712 717 717 715 744 735 737 739 739 741 743 756 749 746 754 761 764 766 764 771 771 772 778 785 788 794 798 797 807 804 811 786 778 777 775 777
638 638 639 648 656 663 672 681 689 700 707 707 710 711 716 735 735 734 737 737 740 740 748 756 752 753 772 771 770 773 777 780 782 789 786 794 795 807 805 821 812 770 776 775 773 769 765
632 639 641 646 652 659 670 678 688 698 703 707 706 708 714 742 731 736 736 737 745 749 754 755 763 764 768 769 774 782 788 794 794 796 794 791 796 815 811 799 781 766 776 781 782 770 761
627 634 639 644 653 661 670 678 687 695 702 707 705 706 708 727 734 728 734 739 743 747 756 767 772 773 773 774 778 784 785 777 789 793 799 799 798 795 815 804 800 772 780 779 778 778 767
627 632 637 646 655 663 669 677 684 692 700 705 705 705 709 718 725 728 730 736 738 743 750 765 770 774 773 778 782 781 778 783 783 793 808 806 811 805 805 803 786 772 778 780 786 780 769
624 630 640 647 652 660 668 675 682 689 698 703 704 706 708 718 728 729 730 733 739 738 745 761 765 770 775 778 779 779 785 783 782 779 788 789 797 803 811 807 799 777 780 782 772 769 772
630 636 640 645 654 660 666 672 680 686 697 701 705 708 710 716 728 733 734 734 734 733 738 751 745 751 753 765 779 785 794 805 783 778 787 787 778 779 782 774 772 774 770 770 774 773 771